User: anonymous   Login
Location: Radomski Observatory
(40.2854°N, 79.5145°W)
Time: 18:31:52
(UTC-04:00)
Language:

Uosat F - Orbit

View from above orbital plane
View from above orbital plane
View from above satellite
View from above satellite

Ground track
Ground track

The orbit data is extracted from the following two-line orbital elements,

1 21575U 91050B   18110.09599803 -.00000001  00000-0  14207-4 0  9999
2 21575  98.7351 138.4868 0008448 104.7981 255.4144 14.40840742405476
Epoch (UTC): 20 April 2018 02:18:14
Eccentricity: 0.0008448
inclination: 98.7351°
perigee height: 749 km
apogee height: 762 km
right ascension of ascending node: 138.4868°
argument of perigee: 104.7981°
revolutions per day: 14.40840742
mean anomaly at epoch: 255.4144°
orbit number at epoch: 40547

The dashed part of the orbit path shows where the satellite is in the earth's shadow,  

DLR